Cumberland, WI

10:06 AM CDT on May 24, 2017 (GMT -0500)
Cumberland Municipal

Weather History for KUBE - November, 2013

Change the Weather History Date:

Monday, November 18, 2013

  Actual Average (KRPD) Record (KRPD)
Temperature  
Mean Temperature 24 °F -  
Max Temperature 30 °F 37 °F 60 °F (2001)
Min Temperature 19 °F 23 °F 8 °F (2014)
Degree Days  
Heating Degree Days 40    
Moisture  
Dew Point 19 °F    
Average Humidity 76    
Maximum Humidity 93    
Minimum Humidity 64    
Precipitation  
Precipitation 0.00 in - - ()
Sea Level Pressure  
Sea Level Pressure 30.02 in    
Wind  
Wind Speed 15 mph (WNW)    
Max Wind Speed 23 mph    
Max Gust Speed 36 mph    
Visibility 10 miles    
Events      
Averages and records for this station are not official NWS values.
T = Trace of Precipitation, MM = Missing Value Source: NWS Daily Summary

Daily Weather History Graph

Daily Weather History Graph

Search for Another Location

Airport or City:

Trip Planner

Search our weather history database for the weather conditions in past years. The results will help you decide how hot, cold, wet, or windy it might be!

Date:

Astronomy

Nov. 18, 2013 Rise Set
Actual Time 7:11 AM CST 4:34 PM CST
Civil Twilight 6:39 AM CST 5:06 PM CST
Nautical Twilight 6:02 AM CST 5:42 PM CST
Astronomical Twilight 5:27 AM CST 6:18 PM CST
Moon 5:36 PM CST (11/18) 8:01 AM CST (11/18)
Length of Visible Light 10h 27m
Length of Day
9h 22m
Full, 99% of the Moon is Illuminated
Nov 18
Full
Nov 25
Last Quarter
Dec 2
New
Dec 9
First Quarter
Dec 17
Full

Hourly Weather History & Observations

Time (CST) Temp. Windchill Dew Point Humidity Pressure Visibility Wind Dir Wind Speed Gust Speed Precip Events Conditions
12:15 AM 30.2 °F 17.4 °F 24.8 °F 80% 29.70 in 10.0 mi West 20.7 mph 28.8 mph N/A   Overcast
12:35 AM 30.2 °F 18.1 °F 23.0 °F 75% 29.71 in 10.0 mi WNW 18.4 mph 32.2 mph N/A   Overcast
12:55 AM 28.4 °F 15.4 °F 23.0 °F 80% 29.72 in 10.0 mi WNW 19.6 mph 28.8 mph N/A   Overcast
1:15 AM 28.4 °F 15.8 °F 23.0 °F 80% 29.73 in 10.0 mi WNW 18.4 mph 32.2 mph N/A   Overcast
1:35 AM 28.4 °F 16.2 °F 23.0 °F 80% 29.74 in 10.0 mi WNW 17.3 mph - N/A   Overcast
1:55 AM 28.4 °F 16.2 °F 23.0 °F 80% 29.75 in 10.0 mi WNW 17.3 mph 32.2 mph N/A   Overcast
2:15 AM 28.4 °F 14.7 °F 23.0 °F 80% 29.77 in 10.0 mi WNW 21.9 mph 35.7 mph N/A   Overcast
2:35 AM 28.4 °F 15.8 °F 21.2 °F 74% 29.77 in 10.0 mi WNW 18.4 mph 28.8 mph N/A   Overcast
2:55 AM 28.4 °F 14.7 °F 21.2 °F 74% 29.78 in 10.0 mi WNW 21.9 mph 27.6 mph N/A   Overcast
3:15 AM 28.4 °F 16.2 °F 21.2 °F 74% 29.79 in 10.0 mi WNW 17.3 mph 27.6 mph N/A   Overcast
3:35 AM 28.4 °F 15.8 °F 21.2 °F 74% 29.80 in 10.0 mi NW 18.4 mph 24.2 mph N/A   Overcast
3:55 AM 28.4 °F 16.6 °F 21.2 °F 74% 29.81 in 10.0 mi NW 16.1 mph 26.5 mph N/A   Overcast
4:15 AM 28.4 °F 18.0 °F 21.2 °F 74% 29.82 in 10.0 mi NW 12.7 mph 20.7 mph N/A   Overcast
4:35 AM 28.4 °F 18.0 °F 21.2 °F 74% 29.83 in 10.0 mi WNW 12.7 mph 20.7 mph N/A   Overcast
4:55 AM 26.6 °F 14.7 °F 21.2 °F 80% 29.84 in 10.0 mi WNW 15.0 mph 21.9 mph N/A   Overcast
5:15 AM 28.4 °F 17.0 °F 21.2 °F 74% 29.85 in 10.0 mi WNW 15.0 mph 21.9 mph N/A   Overcast
5:35 AM 28.4 °F 14.4 °F 19.4 °F 69% 29.86 in 10.0 mi WNW 23.0 mph 28.8 mph N/A   Overcast
5:55 AM 26.6 °F 13.8 °F 19.4 °F 74% 29.86 in 10.0 mi NW 17.3 mph 29.9 mph N/A   Overcast
6:15 AM 26.6 °F 12.0 °F 19.4 °F 74% 29.88 in 10.0 mi NW 23.0 mph 32.2 mph N/A   Overcast
6:35 AM 26.6 °F 12.4 °F 17.6 °F 69% 29.89 in 10.0 mi WNW 21.9 mph 26.5 mph N/A   Overcast
6:55 AM 26.6 °F 14.3 °F 17.6 °F 69% 29.89 in 10.0 mi WNW 16.1 mph 24.2 mph N/A   Overcast
7:15 AM 26.6 °F 13.8 °F 17.6 °F 69% 29.90 in 10.0 mi WNW 17.3 mph 24.2 mph N/A   Overcast
7:35 AM 26.6 °F 15.2 °F 17.6 °F 69% 29.92 in 10.0 mi WNW 13.8 mph 26.5 mph N/A   Overcast
7:55 AM 26.6 °F 14.7 °F 17.6 °F 69% 29.93 in 10.0 mi WNW 15.0 mph 25.3 mph N/A   Overcast
8:15 AM 26.6 °F 13.8 °F 19.4 °F 74% 29.94 in 10.0 mi WNW 17.3 mph 25.3 mph N/A   Overcast
8:35 AM 26.6 °F 14.3 °F 19.4 °F 74% 29.95 in 10.0 mi WNW 16.1 mph 23.0 mph N/A   Overcast
8:55 AM 26.6 °F 13.1 °F 19.4 °F 74% 29.96 in 10.0 mi WNW 19.6 mph 26.5 mph N/A   Overcast
9:15 AM 26.6 °F 13.4 °F 19.4 °F 74% 29.97 in 10.0 mi NW 18.4 mph 24.2 mph N/A   Overcast
9:35 AM 28.4 °F 17.5 °F 19.4 °F 69% 29.98 in 10.0 mi WNW 13.8 mph 23.0 mph N/A   Overcast
9:55 AM 28.4 °F 16.6 °F 19.4 °F 69% 30.00 in 10.0 mi WNW 16.1 mph 26.5 mph N/A   Overcast
10:15 AM 28.4 °F 16.2 °F 19.4 °F 69% 30.02 in 10.0 mi NW 17.3 mph - N/A   Overcast
10:35 AM 28.4 °F 17.0 °F 19.4 °F 69% 30.03 in 10.0 mi NW 15.0 mph - N/A   Overcast
10:55 AM 28.4 °F 17.5 °F 19.4 °F 69% 30.04 in 10.0 mi WNW 13.8 mph 19.6 mph N/A   Overcast
11:15 AM 28.4 °F 19.1 °F 19.4 °F 69% 30.05 in 10.0 mi WNW 10.4 mph 18.4 mph N/A   Overcast
11:35 AM 28.4 °F 16.6 °F 19.4 °F 69% 30.06 in 10.0 mi WNW 16.1 mph 21.9 mph N/A   Overcast
11:55 AM 28.4 °F 17.0 °F 19.4 °F 69% 30.07 in 10.0 mi WNW 15.0 mph 23.0 mph N/A   Overcast
12:15 PM 28.4 °F 16.2 °F 19.4 °F 69% 30.08 in 10.0 mi WNW 17.3 mph - N/A   Overcast
12:35 PM 28.4 °F 17.0 °F 19.4 °F 69% 30.08 in 10.0 mi NW 15.0 mph 20.7 mph N/A   Overcast
12:55 PM 28.4 °F 17.0 °F 17.6 °F 64% 30.08 in 10.0 mi NW 15.0 mph 20.7 mph N/A   Overcast
1:15 PM 28.4 °F 16.6 °F 17.6 °F 64% 30.09 in 10.0 mi NW 16.1 mph 20.7 mph N/A   Overcast
1:35 PM 28.4 °F 18.0 °F 19.4 °F 69% 30.10 in 10.0 mi WNW 12.7 mph - N/A   Overcast
1:55 PM 28.4 °F 17.5 °F 19.4 °F 69% 30.10 in 10.0 mi WNW 13.8 mph 20.7 mph N/A   Overcast
2:15 PM 28.4 °F 17.5 °F 19.4 °F 69% 30.11 in 10.0 mi NW 13.8 mph 19.6 mph N/A   Overcast
2:35 PM 28.4 °F 16.2 °F 17.6 °F 64% 30.11 in 10.0 mi West 17.3 mph 23.0 mph N/A   Overcast
2:55 PM 28.4 °F 19.1 °F 19.4 °F 69% 30.12 in 10.0 mi NW 10.4 mph - N/A   Overcast
3:15 PM 28.4 °F 18.5 °F 17.6 °F 64% 30.13 in 10.0 mi NW 11.5 mph - N/A   Overcast
3:35 PM 28.4 °F 18.5 °F 17.6 °F 64% 30.13 in 10.0 mi WNW 11.5 mph 18.4 mph N/A   Mostly Cloudy
3:55 PM 28.4 °F 19.1 °F 19.4 °F 69% 30.14 in 10.0 mi NW 10.4 mph - N/A   Mostly Cloudy
4:15 PM 26.6 °F 16.2 °F 17.6 °F 69% 30.15 in 10.0 mi WNW 11.5 mph - N/A   Overcast
4:35 PM 26.6 °F 17.5 °F 19.4 °F 74% 30.15 in 10.0 mi WNW 9.2 mph - N/A   Mostly Cloudy
4:55 PM 26.6 °F 18.2 °F 19.4 °F 74% 30.16 in 10.0 mi West 8.1 mph - N/A   Mostly Cloudy
5:15 PM 26.6 °F 20.0 °F 19.4 °F 74% 30.16 in 10.0 mi WNW 5.8 mph - N/A   Overcast
5:35 PM 24.8 °F 16.9 °F 19.4 °F 80% 30.16 in 10.0 mi WNW 6.9 mph - N/A   Scattered Clouds
5:55 PM 24.8 °F 16.9 °F 19.4 °F 80% 30.17 in 10.0 mi WNW 6.9 mph - N/A   Clear
6:15 PM 23.0 °F 15.8 °F 19.4 °F 86% 30.17 in 10.0 mi West 5.8 mph - N/A   Clear
6:35 PM 23.0 °F 15.8 °F 19.4 °F 86% 30.18 in 10.0 mi West 5.8 mph - N/A   Clear
6:55 PM 23.0 °F 15.8 °F 19.4 °F 86% 30.19 in 10.0 mi WNW 5.8 mph - N/A   Clear
7:15 PM 23.0 °F 15.8 °F 19.4 °F 86% 30.19 in 10.0 mi WNW 5.8 mph - N/A   Clear
7:35 PM 23.0 °F 15.8 °F 17.6 °F 80% 30.19 in 10.0 mi WNW 5.8 mph - N/A   Clear
7:55 PM 23.0 °F 17.0 °F 17.6 °F 80% 30.20 in 10.0 mi WNW 4.6 mph - N/A   Clear
8:15 PM 23.0 °F 15.8 °F 17.6 °F 80% 30.20 in 10.0 mi WNW 5.8 mph - N/A   Clear
8:35 PM 21.2 °F 14.9 °F 17.6 °F 86% 30.20 in 10.0 mi WNW 4.6 mph - N/A   Clear
8:55 PM 21.2 °F 14.9 °F 17.6 °F 86% 30.21 in 10.0 mi West 4.6 mph - N/A   Clear
9:15 PM 21.2 °F 16.4 °F 19.4 °F 93% 30.21 in 10.0 mi West 3.5 mph - N/A   Clear
9:35 PM 21.2 °F 16.4 °F 17.6 °F 86% 30.21 in 10.0 mi WNW 3.5 mph - N/A   Clear
9:55 PM 21.2 °F 16.4 °F 19.4 °F 93% 30.22 in 10.0 mi WNW 3.5 mph - N/A   Clear
10:15 PM 19.4 °F - 17.6 °F 93% 30.22 in 10.0 mi Calm Calm - N/A   Clear
10:35 PM 19.4 °F - 17.6 °F 93% 30.22 in 10.0 mi Calm Calm - N/A   Clear
10:55 PM 21.2 °F - 19.4 °F 93% 30.22 in 10.0 mi Calm Calm - N/A   Clear
11:15 PM 19.4 °F - 17.6 °F 93% 30.22 in 10.0 mi Calm Calm - N/A   Clear
11:35 PM 19.4 °F - 17.6 °F 93% 30.22 in 10.0 mi Calm Calm - N/A   Clear
11:55 PM 19.4 °F - 17.6 °F 93% 30.23 in 10.0 mi Calm Calm - N/A   Clear